Regional Weather Roundup
Issued by NWS

Home | Current Version | Previous Version | Graphics & Text | Print | Product List | Glossary On
Versions: 1 2 3 4 5 6 7 8 9 10 11 12 13 14 15 16 17 18 19 20 21 22 23 24 25 26 27 28 29 30 31 32 33 34 35 36 37 38 39 40 41 42 43 44 45 46 47 48 49 50
294
ASUS45 KCYS 231910
RWRWY

WYOMING REGIONAL WEATHER ROUNDUP
NATIONAL WEATHER SERVICE CHEYENNE WY
100 PM MDT SAT JUL 23 2016

NOTE:  "FAIR" INDICATES FEW OR NO CLOUDS BELOW 12,000 FEET
WITH NO SIGNIFICANT WEATHER AND/OR OBSTRUCTIONS TO VISIBILITY.

WYZ001-232000-
YELLOWSTONE NATIONAL PARK

CITY           SKY/WX    TMP DP  RH WIND       PRES   REMARKS
LK YELLOWSTONE   N/A     68  28  22 W5        30.33F
W YELLOWSTONE  NOT AVBL

$$
WYZ002>013-054>058-071-098>099-232000-
NORTHERN WYOMING

CITY           SKY/WX    TMP DP  RH WIND       PRES   REMARKS
JACKSON        SUNNY     75  27  16 S12G17    30.23F
CODY           FAIR      79  41  25 N14       30.09F
GREYBULL       FAIR      85  33  15 W9        30.02F
WORLAND        FAIR      84  38  19 E7        30.04F
SHERIDAN       FAIR      83  42  23 NW10G17   30.06S
BUFFALO        FAIR      80  41  24 NE9       30.12S
GILLETTE       FAIR      81  40  23 MISG      30.06S
HULETT         FAIR      81  37  21 N13       30.06S
NEWCASTLE      FAIR      84  32  15 NW16G25   30.03R

$$
WYZ014>020-022>026-101>103-232000-
CENTRAL WYOMING

CITY           SKY/WX    TMP DP  RH WIND       PRES   REMARKS
BIG PINEY      FAIR      80  25  13 W10G23    30.27F
PINEDALE       FAIR      75  23  14 N7        30.29S
DUBOIS         FAIR      77  18  10 NW15G29   30.23S
LANDER         FAIR      85  33  15 N9        30.09F
RIVERTON       FAIR      83  27  13 VRB6      30.11F
CASPER         FAIR      85  39  19 N8        30.09F
DOUGLAS          N/A    N/A N/A N/A MISG      30.08F

$$
WYZ021-027>030-104>119-232000-
SOUTHERN WYOMING

CITY           SKY/WX    TMP DP  RH WIND       PRES   REMARKS
EVANSTON       FAIR      81  20  10 W14G23    30.30F
KEMMERER         N/A     77  21  12 W12G24    30.31F
FORT BRIDGER   FAIR      84  19   9 W15       30.31F
ROCK SPRINGS   FAIR      82  20  10 W13G24    30.26F
DIXON          FAIR      84  44  24 NW10G16   30.26F
RAWLINS        FAIR      85  25  11 W20G28    30.23F
SARATOGA       FAIR      82  39  21 SW13G22   30.27S
LARAMIE        FAIR      86  39  19 SW16G25   30.24F
CHEYENNE       FAIR      91  37  15 W9G22     30.14F
TORRINGTON     FAIR      91  43  18 N8        30.00F
PINE BLUFFS    FAIR      90  39  17 CALM      30.08S

$$




USA.gov is the U.S. government's official web portal to all federal, state and local government web resources and services.